HERMES-6

导读

HERMES-6是HERMES多信使天体物理纳米卫星星座计划的第六颗卫星,由意大利航天局和欧盟委员会资助,星座整体计划于2024至2025年间完成部署。 HERMES-6原定于2025年3月15日发射,将进入550公里赤道轨道,星载微型光谱仪,可实现对天体信号的持续监测,助力多信使天体物理学领域的前沿观测研究,其发射国家尚未最终确定。

Basic Information
目录编号:
63489
目录名称:
HERMES-6
国际标识:
2025-052BK
轨道中心:
EARTH
卫星名称:
HERMES-6
卫星全名:
HERMES-6
卫星状态:
在轨 (已飞行538 天)
发射日期:
2025-03-15 UTC
国别 :
意大利 (IT)
星等 :
--
Orbit Information
数据来源 国际轨道数据
星历时间: 2026-09-03T19:56:55+0800
1天前
查看轨道信息
半长轴: 6872.381km
偏心率: 0.000439
轨道倾角: 97.388°
近地点辐角 250.299°
升交点赤经 137.854°
平近点角 109.778°
近地点: 491.227km
远地点: 497.261km
周期: 94.498分钟
每日圈数: 15.238491
Detailed Information
使用方式:
暂无
2D Orbit Map
3D Orbit Map
Orbit Altitude Analysis Chart
Orbit Inclination Analysis Chart
Orbit Comprehensive Analysis Chart
View Comprehensive Chart
Conjunction Data List
Event ID Objects TCA Miss Dist (km) Collision Risk Probability Collision Risk Index (CRI) Action
CDM_260905-132906-266506-348922
JAY-D2 (62665)
HERMES-6 (63489)
2026-09-05T
13:29:48+0000
0.631 km
远距离
1.164709E-4 高风险 0.76
CDM_260904-172905-597806-348923
HERMES-6 (63489)
2026-09-04T
17:29:07+0000
0.510 km
远距离
9.80654E-5 中风险 0.75
CDM_260905-003805-913706-348922
HERMES-6 (63489)
2026-09-05T
00:38:20+0000
2.123 km
极远距离
2.238287E-6 低风险 0.42
CDM_260904-110006-348906-768125
HERMES-6 (63489)
2026-09-04T
11:00:57+0000
2.304 km
极远距离
2.070611E-6 低风险 0.41
CDM_260905-052005-305506-348921
HERMES-6 (63489)
2026-09-05T
05:20:30+0000
2.324 km
极远距离
1.522221E-6 低风险 0.39
CDM_260906-034506-272606-348921
OBJECT B (62726)
HERMES-6 (63489)
2026-09-06T
03:45:48+0000
2.967 km
极远距离
1.373428E-6 低风险 0.38